Terminal Aerodrome Forecast
Issued by NWS

Home | Current Version | Previous Version | Text Only | Print | Product List | Glossary On
Versions: 1 2 3 4 5 6 7 8 9 10 11 12 13 14 15 16 17
000
FTUS42 KTAE 212300
TAFVLD
TAF
KVLD 212328Z 2200/2224 VRB03KT P6SM FEW080
      TEMPO 2209/2213 5SM BR
     FM221400 35005KT P6SM SCT050=

USA.gov is the U.S. government's official web portal to all federal, state and local government web resources and services.